Time,TemperatureF,DewpointF,PressureIn,WindDirection,WindDirectionDegrees,WindSpeedMPH,WindSpeedGustMPH,Humidity,HourlyPrecipIn,Conditions,Clouds,dailyrainin,SoftwareType,DateUTC
2013-01-25 00:03:00,7.0,-1.0,30.21,North,351,7.0,11.0,69,-99.99,,,-99.99,,2013-01-25 05:03:00,
2013-01-25 00:12:00,7.0,-2.0,30.20,North,11,7.0,8.0,67,-99.99,,,-99.99,,2013-01-25 05:12:00,
2013-01-25 00:22:00,7.0,-2.0,30.20,North,11,7.0,8.0,67,-99.99,,,-99.99,,2013-01-25 05:22:00,
2013-01-25 00:32:00,7.0,-2.0,30.20,North,11,7.0,8.0,67,-99.99,,,-99.99,,2013-01-25 05:32:00,
2013-01-25 00:43:00,7.0,-2.0,30.20,North,11,7.0,8.0,67,-99.99,,,-99.99,,2013-01-25 05:43:00,
2013-01-25 00:52:00,7.0,-2.0,30.20,North,353,5.0,6.0,66,-99.99,,,-99.99,,2013-01-25 05:52:00,
2013-01-25 01:02:00,7.0,-3.0,30.20,NNW,345,5.0,11.0,64,-99.99,,,-99.99,,2013-01-25 06:02:00,
2013-01-25 01:12:00,7.0,-3.0,30.20,NNW,345,5.0,11.0,64,-99.99,,,-99.99,,2013-01-25 06:12:00,
2013-01-25 01:21:00,6.0,-3.0,30.21,North,0,6.0,7.0,65,-99.99,,,-99.99,,2013-01-25 06:21:00,
2013-01-25 01:32:00,6.0,-3.0,30.21,North,0,6.0,7.0,65,-99.99,,,-99.99,,2013-01-25 06:32:00,
2013-01-25 01:42:00,6.0,-3.0,30.21,West,270,6.0,8.0,66,-99.99,,,-99.99,,2013-01-25 06:42:00,
2013-01-25 01:52:00,6.0,-3.0,30.21,West,270,6.0,8.0,66,-99.99,,,-99.99,,2013-01-25 06:52:00,
2013-01-25 02:02:00,6.0,-3.0,30.23,North,353,6.0,7.0,67,-99.99,,,-99.99,,2013-01-25 07:02:00,
2013-01-25 02:11:00,6.0,-3.0,30.22,NNW,337,7.0,14.0,67,-99.99,,,-99.99,,2013-01-25 07:11:00,
2013-01-25 02:22:00,6.0,-3.0,30.22,NNW,337,7.0,14.0,67,-99.99,,,-99.99,,2013-01-25 07:22:00,
2013-01-25 02:32:00,6.0,-3.0,30.22,NNW,337,7.0,14.0,67,-99.99,,,-99.99,,2013-01-25 07:32:00,
2013-01-25 02:42:00,6.0,-3.0,30.22,NNW,337,7.0,14.0,67,-99.99,,,-99.99,,2013-01-25 07:42:00,
2013-01-25 02:52:00,5.0,-4.0,30.22,North,11,9.0,10.0,66,-99.99,,,-99.99,,2013-01-25 07:52:00,
2013-01-25 03:02:00,5.0,-4.0,30.22,North,11,9.0,10.0,66,-99.99,,,-99.99,,2013-01-25 08:02:00,
2013-01-25 03:12:00,5.0,-4.0,30.22,North,11,9.0,10.0,66,-99.99,,,-99.99,,2013-01-25 08:12:00,
2013-01-25 03:21:00,5.0,-4.0,30.22,North,11,9.0,10.0,66,-99.99,,,-99.99,,2013-01-25 08:21:00,
2013-01-25 03:52:00,4.0,-4.0,30.22,North,355,6.0,9.0,67,-99.99,,,-99.99,,2013-01-25 08:52:00,
2013-01-25 04:02:00,4.0,-4.0,30.22,North,4,4.0,8.0,69,-99.99,,,-99.99,,2013-01-25 09:02:00,
2013-01-25 04:11:00,4.0,-4.0,30.22,North,4,4.0,8.0,69,-99.99,,,-99.99,,2013-01-25 09:11:00,
2013-01-25 04:21:00,4.0,-4.0,30.22,North,4,4.0,8.0,69,-99.99,,,-99.99,,2013-01-25 09:21:00,
2013-01-25 04:32:00,4.0,-4.0,30.22,North,4,4.0,8.0,69,-99.99,,,-99.99,,2013-01-25 09:32:00,
2013-01-25 04:42:00,4.0,-4.0,30.22,North,4,4.0,8.0,69,-99.99,,,-99.99,,2013-01-25 09:42:00,
2013-01-25 05:02:00,3.0,-4.0,30.22,North,9,4.0,5.0,73,-99.99,,,-99.99,,2013-01-25 10:02:00,
2013-01-25 05:12:00,3.0,-4.0,30.22,West,265,5.0,11.0,73,-99.99,,,-99.99,,2013-01-25 10:12:00,
2013-01-25 05:22:00,3.0,-4.0,30.22,West,265,5.0,11.0,73,-99.99,,,-99.99,,2013-01-25 10:22:00,
2013-01-25 05:32:00,3.0,-4.0,30.22,West,265,5.0,11.0,73,-99.99,,,-99.99,,2013-01-25 10:32:00,
2013-01-25 05:42:00,3.0,-4.0,30.22,West,265,5.0,11.0,73,-99.99,,,-99.99,,2013-01-25 10:42:00,
2013-01-25 05:52:00,2.0,-5.0,30.22,NW,306,5.0,11.0,72,-99.99,,,-99.99,,2013-01-25 10:52:00,
2013-01-25 06:02:00,2.0,-5.0,30.22,NW,306,5.0,11.0,72,-99.99,,,-99.99,,2013-01-25 11:02:00,
2013-01-25 06:11:00,2.0,-5.0,30.22,NW,306,5.0,11.0,72,-99.99,,,-99.99,,2013-01-25 11:11:00,
2013-01-25 06:22:00,2.0,-5.0,30.23,North,355,4.0,13.0,73,-99.99,,,-99.99,,2013-01-25 11:22:00,
2013-01-25 06:33:00,2.0,-5.0,30.23,North,355,4.0,13.0,73,-99.99,,,-99.99,,2013-01-25 11:33:00,
2013-01-25 06:42:00,2.0,-5.0,30.23,North,355,4.0,13.0,73,-99.99,,,-99.99,,2013-01-25 11:42:00,
2013-01-25 06:52:00,2.0,-4.0,30.23,NNW,342,4.0,9.0,74,-99.99,,,-99.99,,2013-01-25 11:52:00,
2013-01-25 07:02:00,2.0,-4.0,30.23,North,6,4.0,9.0,75,-99.99,,,-99.99,,2013-01-25 12:02:00,
2013-01-25 07:12:00,2.0,-4.0,30.23,North,6,4.0,9.0,75,-99.99,,,-99.99,,2013-01-25 12:12:00,
2013-01-25 07:22:00,2.0,-4.0,30.23,North,6,4.0,9.0,75,-99.99,,,-99.99,,2013-01-25 12:22:00,
2013-01-25 07:32:00,1.0,-5.0,30.24,WNW,290,4.0,7.0,75,-99.99,,,-99.99,,2013-01-25 12:32:00,
2013-01-25 07:42:00,1.0,-5.0,30.24,WNW,290,4.0,7.0,75,-99.99,,,-99.99,,2013-01-25 12:42:00,
2013-01-25 07:53:00,1.0,-5.0,30.24,NW,312,1.0,4.0,76,-99.99,,,-99.99,,2013-01-25 12:53:00,
2013-01-25 08:03:00,2.0,-4.0,30.23,North,0,4.0,4.0,77,-99.99,,,-99.99,,2013-01-25 13:03:00,
2013-01-25 08:12:00,2.0,-4.0,30.23,North,0,4.0,4.0,77,-99.99,,,-99.99,,2013-01-25 13:12:00,
2013-01-25 08:22:00,2.0,-4.0,30.23,North,0,4.0,4.0,77,-99.99,,,-99.99,,2013-01-25 13:22:00,
2013-01-25 08:33:00,2.0,-4.0,30.26,North,2,5.0,8.0,76,-99.99,,,-99.99,,2013-01-25 13:33:00,
2013-01-25 08:42:00,2.0,-4.0,30.26,North,2,5.0,8.0,76,-99.99,,,-99.99,,2013-01-25 13:42:00,
2013-01-25 08:53:00,2.0,-4.0,30.21,WNW,288,4.0,7.0,74,-99.99,,,-99.99,,2013-01-25 13:53:00,
2013-01-25 09:03:00,3.0,-3.0,30.24,North,353,3.0,8.0,74,-99.99,,,-99.99,,2013-01-25 14:03:00,
2013-01-25 09:13:00,3.0,-3.0,30.24,North,353,3.0,8.0,74,-99.99,,,-99.99,,2013-01-25 14:13:00,
2013-01-25 09:23:00,3.0,-3.0,30.24,North,353,3.0,8.0,74,-99.99,,,-99.99,,2013-01-25 14:23:00,
2013-01-25 09:33:00,5.0,-2.0,30.24,NNW,328,3.0,7.0,71,-99.99,,,-99.99,,2013-01-25 14:33:00,
2013-01-25 09:42:00,5.0,-2.0,30.24,NNW,328,3.0,7.0,71,-99.99,,,-99.99,,2013-01-25 14:42:00,
2013-01-25 09:53:00,6.0,-2.0,30.24,North,0,4.0,5.0,70,-99.99,,,-99.99,,2013-01-25 14:53:00,
2013-01-25 10:03:00,7.0,-1.0,30.23,West,270,3.0,6.0,68,-99.99,,,-99.99,,2013-01-25 15:03:00,
2013-01-25 10:13:00,7.0,-1.0,30.23,West,270,3.0,6.0,68,-99.99,,,-99.99,,2013-01-25 15:13:00,
2013-01-25 10:22:00,7.0,-1.0,30.23,West,270,3.0,6.0,68,-99.99,,,-99.99,,2013-01-25 15:22:00,
2013-01-25 10:33:00,8.0,-1.0,30.22,West,270,2.0,5.0,66,-99.99,,,-99.99,,2013-01-25 15:33:00,
2013-01-25 10:42:00,8.0,-1.0,30.22,West,270,2.0,5.0,66,-99.99,,,-99.99,,2013-01-25 15:42:00,
2013-01-25 10:53:00,8.0,-1.0,30.22,West,270,2.0,5.0,66,-99.99,,,-99.99,,2013-01-25 15:53:00,
2013-01-25 11:03:00,8.0,-1.0,30.22,West,270,2.0,5.0,66,-99.99,,,-99.99,,2013-01-25 16:03:00,
2013-01-25 11:53:00,12.0,0.0,30.18,NW,321,7.0,18.0,58,-99.99,,,-99.99,,2013-01-25 16:53:00,
2013-01-25 12:03:00,12.0,0.0,30.18,NW,321,7.0,18.0,58,-99.99,,,-99.99,,2013-01-25 17:03:00,
2013-01-25 12:12:00,12.0,0.0,30.18,NW,321,7.0,18.0,58,-99.99,,,-99.99,,2013-01-25 17:12:00,
2013-01-25 12:22:00,12.0,0.0,30.18,NW,321,7.0,18.0,58,-99.99,,,-99.99,,2013-01-25 17:22:00,
2013-01-25 12:33:00,15.0,2.0,30.16,NNE,18,3.0,6.0,56,-99.99,,,-99.99,,2013-01-25 17:33:00,
2013-01-25 12:43:00,15.0,2.0,30.16,NNE,18,3.0,6.0,56,-99.99,,,-99.99,,2013-01-25 17:43:00,
2013-01-25 12:53:00,16.0,3.0,30.14,NW,324,0.0,4.0,56,-99.99,,,-99.99,,2013-01-25 17:53:00,
2013-01-25 13:03:00,17.0,3.0,30.13,NNE,31,3.0,5.0,53,-99.99,,,-99.99,,2013-01-25 18:03:00,
2013-01-25 13:12:00,17.0,3.0,30.13,NNE,31,3.0,5.0,53,-99.99,,,-99.99,,2013-01-25 18:12:00,
2013-01-25 13:23:00,17.0,3.0,30.13,NNE,31,3.0,5.0,53,-99.99,,,-99.99,,2013-01-25 18:23:00,
2013-01-25 13:33:00,18.0,3.0,30.11,ENE,72,1.0,1.0,52,-99.99,,,-99.99,,2013-01-25 18:33:00,
2013-01-25 13:42:00,18.0,3.0,30.11,ENE,72,1.0,1.0,52,-99.99,,,-99.99,,2013-01-25 18:42:00,
2013-01-25 13:53:00,19.0,3.0,30.09,North,0,2.0,5.0,50,-99.99,,,-99.99,,2013-01-25 18:53:00,
2013-01-25 14:03:00,19.0,3.0,30.09,SW,225,1.0,2.0,50,-99.99,,,-99.99,,2013-01-25 19:03:00,
2013-01-25 14:12:00,19.0,3.0,30.09,SW,225,1.0,2.0,50,-99.99,,,-99.99,,2013-01-25 19:12:00,
2013-01-25 14:22:00,19.0,3.0,30.09,SW,225,1.0,2.0,50,-99.99,,,-99.99,,2013-01-25 19:22:00,
2013-01-25 14:33:00,21.0,5.0,30.09,SSE,166,1.0,2.0,50,-99.99,,,-99.99,,2013-01-25 19:33:00,
2013-01-25 14:42:00,21.0,5.0,30.09,SSE,166,1.0,2.0,50,-99.99,,,-99.99,,2013-01-25 19:42:00,
2013-01-25 14:53:00,20.0,3.0,30.08,North,0,2.0,3.0,46,-99.99,,,-99.99,,2013-01-25 19:53:00,
2013-01-25 15:03:00,20.0,3.0,30.08,NE,36,1.0,3.0,46,-99.99,,,-99.99,,2013-01-25 20:03:00,
2013-01-25 15:12:00,20.0,3.0,30.08,NE,36,1.0,3.0,46,-99.99,,,-99.99,,2013-01-25 20:12:00,
2013-01-25 15:23:00,20.0,3.0,30.08,NE,36,1.0,3.0,46,-99.99,,,-99.99,,2013-01-25 20:23:00,
2013-01-25 15:32:00,19.0,3.0,30.07,East,87,0.0,2.0,48,-99.99,,,-99.99,,2013-01-25 20:32:00,
2013-01-25 15:42:00,19.0,3.0,30.07,East,87,0.0,2.0,48,-99.99,,,-99.99,,2013-01-25 20:42:00,
2013-01-25 15:53:00,18.0,2.0,30.05,NNW,335,1.0,2.0,49,-99.99,,,-99.99,,2013-01-25 20:53:00,
2013-01-25 16:02:00,18.0,1.0,30.05,NE,49,2.0,3.0,47,-99.99,,,-99.99,,2013-01-25 21:02:00,
2013-01-25 16:12:00,18.0,1.0,30.05,NE,49,2.0,3.0,47,-99.99,,,-99.99,,2013-01-25 21:12:00,
2013-01-25 16:23:00,18.0,1.0,30.05,NE,49,2.0,3.0,47,-99.99,,,-99.99,,2013-01-25 21:23:00,
2013-01-25 16:33:00,16.0,0.0,30.05,NW,315,0.0,2.0,48,-99.99,,,-99.99,,2013-01-25 21:33:00,
2013-01-25 16:42:00,16.0,0.0,30.05,NW,315,0.0,2.0,48,-99.99,,,-99.99,,2013-01-25 21:42:00,
2013-01-25 16:52:00,16.0,0.0,30.04,West,270,0.0,1.0,48,-99.99,,,-99.99,,2013-01-25 21:52:00,
2013-01-25 17:03:00,16.0,2.0,30.04,NW,315,0.0,0.0,52,-99.99,,,-99.99,,2013-01-25 22:03:00,
2013-01-25 17:12:00,16.0,2.0,30.04,NW,315,0.0,0.0,52,-99.99,,,-99.99,,2013-01-25 22:12:00,
2013-01-25 17:22:00,16.0,2.0,30.04,NW,315,0.0,0.0,52,-99.99,,,-99.99,,2013-01-25 22:22:00,
2013-01-25 17:33:00,15.0,0.0,30.04,NW,315,0.0,0.0,51,-99.99,,,-99.99,,2013-01-25 22:33:00,
2013-01-25 17:42:00,15.0,0.0,30.04,NW,315,0.0,0.0,51,-99.99,,,-99.99,,2013-01-25 22:42:00,
2013-01-25 17:53:00,15.0,2.0,30.02,SE,135,0.0,1.0,55,-99.99,,,-99.99,,2013-01-25 22:53:00,
2013-01-25 18:02:00,15.0,1.0,30.00,NE,40,2.0,3.0,52,-99.99,,,-99.99,,2013-01-25 23:02:00,
2013-01-25 18:12:00,15.0,1.0,30.00,NE,40,2.0,3.0,52,-99.99,,,-99.99,,2013-01-25 23:12:00,
2013-01-25 18:22:00,15.0,1.0,30.00,NE,40,2.0,3.0,52,-99.99,,,-99.99,,2013-01-25 23:22:00,
2013-01-25 18:32:00,15.0,4.0,30.00,SE,146,0.0,3.0,62,-99.99,,,-99.99,,2013-01-25 23:32:00,
2013-01-25 18:42:00,15.0,4.0,30.00,SE,146,0.0,3.0,62,-99.99,,,-99.99,,2013-01-25 23:42:00,
2013-01-25 18:53:00,15.0,7.0,30.00,SE,135,0.0,1.0,71,-99.99,,,-99.99,,2013-01-25 23:53:00,
2013-01-25 19:02:00,15.0,9.0,29.99,NW,310,0.0,0.0,75,-99.99,,,-99.99,,2013-01-26 00:02:00,
2013-01-25 19:12:00,15.0,9.0,29.99,NW,310,0.0,0.0,75,-99.99,,,-99.99,,2013-01-26 00:12:00,
2013-01-25 19:22:00,15.0,9.0,29.99,NW,310,0.0,0.0,75,-99.99,,,-99.99,,2013-01-26 00:22:00,
2013-01-25 19:32:00,15.0,10.0,30.00,NW,315,0.0,0.0,80,-99.99,,,-99.99,,2013-01-26 00:32:00,
2013-01-25 19:42:00,15.0,10.0,30.00,NW,315,0.0,0.0,80,-99.99,,,-99.99,,2013-01-26 00:42:00,
2013-01-25 19:53:00,14.0,10.0,29.98,NW,315,0.0,0.0,83,-99.99,,,-99.99,,2013-01-26 00:53:00,
2013-01-25 20:02:00,14.0,10.0,29.98,NW,315,0.0,0.0,83,-99.99,,,-99.99,,2013-01-26 01:02:00,
2013-01-25 20:12:00,14.0,10.0,29.98,NW,315,0.0,0.0,83,-99.99,,,-99.99,,2013-01-26 01:12:00,
2013-01-25 20:22:00,14.0,10.0,29.98,NW,315,0.0,0.0,83,-99.99,,,-99.99,,2013-01-26 01:22:00,
2013-01-25 20:32:00,14.0,11.0,29.97,North,0,1.0,2.0,89,-99.99,,,-99.99,,2013-01-26 01:32:00,
2013-01-25 20:42:00,14.0,11.0,29.97,North,0,1.0,2.0,89,-99.99,,,-99.99,,2013-01-26 01:42:00,
2013-01-25 20:52:00,14.0,11.0,29.97,North,0,1.0,2.0,89,-99.99,,,-99.99,,2013-01-26 01:52:00,
2013-01-25 21:02:00,14.0,12.0,29.96,North,0,0.0,2.0,90,-99.99,,,-99.99,,2013-01-26 02:02:00,
2013-01-25 21:12:00,14.0,12.0,29.96,North,0,0.0,2.0,90,-99.99,,,-99.99,,2013-01-26 02:12:00,
2013-01-25 21:22:00,14.0,12.0,29.96,North,0,0.0,2.0,90,-99.99,,,-99.99,,2013-01-26 02:22:00,
2013-01-25 21:32:00,14.0,12.0,29.98,North,357,1.0,2.0,93,-99.99,,,-99.99,,2013-01-26 02:32:00,
2013-01-25 21:42:00,14.0,12.0,29.98,North,357,1.0,2.0,93,-99.99,,,-99.99,,2013-01-26 02:42:00,
2013-01-25 21:52:00,13.0,11.0,29.97,NNW,344,1.0,2.0,93,-99.99,,,-99.99,,2013-01-26 02:52:00,
2013-01-25 22:02:00,13.0,12.0,29.96,North,353,2.0,2.0,94,-99.99,,,-99.99,,2013-01-26 03:02:00,
2013-01-25 22:12:00,13.0,12.0,29.96,North,353,2.0,2.0,94,-99.99,,,-99.99,,2013-01-26 03:12:00,
2013-01-25 22:22:00,13.0,12.0,29.96,North,353,2.0,2.0,94,-99.99,,,-99.99,,2013-01-26 03:22:00,
2013-01-25 22:32:00,13.0,12.0,29.96,North,353,2.0,2.0,94,-99.99,,,-99.99,,2013-01-26 03:32:00,
2013-01-25 22:43:00,13.0,12.0,29.96,North,353,2.0,2.0,94,-99.99,,,-99.99,,2013-01-26 03:43:00,
2013-01-25 22:52:00,13.0,12.0,29.94,North,353,1.0,3.0,94,-99.99,,,-99.99,,2013-01-26 03:52:00,
2013-01-25 23:02:00,14.0,13.0,29.98,NW,315,1.0,3.0,94,-99.99,,,-99.99,,2013-01-26 04:02:00,
2013-01-25 23:12:00,14.0,13.0,29.98,NW,315,1.0,3.0,94,-99.99,,,-99.99,,2013-01-26 04:12:00,
2013-01-25 23:21:00,14.0,13.0,29.98,NW,315,1.0,3.0,94,-99.99,,,-99.99,,2013-01-26 04:21:00,
2013-01-25 23:32:00,13.0,12.0,29.94,North,352,3.0,4.0,94,-99.99,,,-99.99,,2013-01-26 04:32:00,
2013-01-25 23:42:00,13.0,12.0,29.94,North,352,3.0,4.0,94,-99.99,,,-99.99,,2013-01-26 04:42:00,
2013-01-25 23:52:00,12.0,11.0,29.93,North,353,2.0,2.0,94,-99.99,,,-99.99,,2013-01-26 04:52:00,